TimeCDT,TemperatureF,Dew PointF,Humidity,Sea Level PressureIn,VisibilityMPH,Wind Direction,Wind SpeedMPH,Gust SpeedMPH,PrecipitationIn,Events,Conditions,WindDirDegrees,DateUTC
12:53 AM,73.9,69.1,85,30.14,10.0,SE,6.9,-,N/A,,Clear,130,2012-10-14 05:53:00
1:53 AM,73.9,69.1,85,30.13,10.0,SE,6.9,-,N/A,,Clear,130,2012-10-14 06:53:00
2:53 AM,73.9,68.0,82,30.11,10.0,ESE,6.9,-,N/A,,Clear,120,2012-10-14 07:53:00
3:53 AM,73.9,68.0,82,30.10,10.0,SE,6.9,-,N/A,,Scattered Clouds,130,2012-10-14 08:53:00
4:53 AM,73.0,68.0,84,30.09,10.0,SE,5.8,-,N/A,,Scattered Clouds,130,2012-10-14 09:53:00
5:53 AM,73.0,68.0,84,30.09,10.0,ESE,9.2,-,N/A,,Clear,110,2012-10-14 10:53:00
6:53 AM,73.9,68.0,82,30.11,10.0,ESE,8.1,-,N/A,,Partly Cloudy,120,2012-10-14 11:53:00
7:53 AM,75.0,69.1,82,30.12,10.0,ESE,8.1,-,N/A,,Scattered Clouds,110,2012-10-14 12:53:00
8:53 AM,75.9,69.1,79,30.15,10.0,ENE,3.5,-,N/A,,Scattered Clouds,70,2012-10-14 13:53:00
9:53 AM,75.0,69.1,82,30.17,10.0,NNE,4.6,-,N/A,,Scattered Clouds,30,2012-10-14 14:53:00
10:53 AM,77.0,70.0,79,30.17,10.0,ENE,4.6,-,N/A,,Scattered Clouds,60,2012-10-14 15:53:00
11:53 AM,82.0,70.0,67,30.16,10.0,Variable,4.6,-,N/A,,Scattered Clouds,0,2012-10-14 16:53:00
12:53 PM,82.9,71.1,67,30.12,10.0,SE,5.8,-,N/A,,Scattered Clouds,130,2012-10-14 17:53:00
1:53 PM,82.9,72.0,69,30.09,10.0,SE,8.1,-,N/A,,Scattered Clouds,130,2012-10-14 18:53:00
3:53 PM,82.0,71.1,69,30.04,10.0,SSE,10.4,-,N/A,,Scattered Clouds,150,2012-10-14 20:53:00
4:53 PM,81.0,71.1,72,30.02,10.0,SSE,10.4,-,N/A,,Clear,150,2012-10-14 21:53:00
5:53 PM,80.1,69.1,69,30.01,10.0,South,5.8,-,N/A,,Clear,170,2012-10-14 22:53:00
6:53 PM,78.1,71.1,79,30.02,10.0,South,4.6,-,N/A,,Clear,180,2012-10-14 23:53:00
7:53 PM,77.0,71.1,82,30.04,10.0,Calm,Calm,-,N/A,,Clear,0,2012-10-15 00:53:00
8:53 PM,73.0,70.0,90,30.05,10.0,Calm,Calm,-,N/A,,Clear,0,2012-10-15 01:53:00
9:53 PM,72.0,70.0,93,30.04,10.0,Calm,Calm,-,N/A,,Clear,0,2012-10-15 02:53:00
10:53 PM,73.9,70.0,87,30.03,10.0,Calm,Calm,-,N/A,,Clear,0,2012-10-15 03:53:00